Tracking 20041 objects as of 22-Nov-2019
Live streaming from Space Station
objects crossing your sky now

COSMOS 624

Track COSMOS 624 now!
10-day predictions
COSMOS 624 is classified as:


NORAD ID: 6992
Int'l Code: 1973-104H
Perigee: 1,357.4 km
Apogee: 1,492.5 km
Inclination: 74.0 °
Period: 114.2 minutes
Semi major axis: 7795 km
RCS: 0.676 m2 (medium)
Launch date: December 19, 1973
Source: Commonwealth of Independent States (former USSR) (CIS)
Launch site: PLESETSK MISSILE AND SPACE COMPLEX (PKMTR)
aabbcc
Your satellite tracking list
Your tracking list is empty




NASA's NSSDC Master Catalog

Two Line Element Set (TLE):
1  6992U 73104H   19325.52304497 +.00000004 +00000-0 +11796-3 0  9996
2  6992 074.0266 164.3314 0086607 284.1799 100.4698 12.61242267114335
Source of the keplerian elements: AFSPC